Terug naar catalogus

ICEYE-X39

ActiefWetenschapSSO
NORAD 60546·PAYLOAD·🇧🇷 Brazil

Gelanceerd Aug 16, 2024 vanaf Vandenberg Space Force Base

Loading…

Volgende Passages (komende 24 uur)

TLE

VersSource: Space-Track

Epoch: Sep 14, 2026, 11:04 UTC

1 60546U 24149CG  26257.46111749  .00001617  00000-0  13477-3 0  9996
2 60546  97.6729 333.3155 0009179 190.4400 169.6634 14.99989927113502

Volg ICEYE-X39 in realtime met AllMySat

Download on the App Store